Estación municipal de Les Masies de Roda (Osona, Ter)

Consulta los datos en tiempo real de la estación municipal de Les Masies de Roda





Hora UTC 04:45
Temperatura 17.1 ºC
Suelo 15 cm 15.0 ºC
Humedad 96.1 %
Presión 1021.4 hPa
Pluja 0.0 mm
Velocidad viento 0.0 km/h
Dirección viento NNE
Radiación solar 323.3 W/m²

Datos diarios 2026-09-04



Hora UTC (invierno +1h; verano +2h)
Temperatura (ºC) Humedad (%) Presión (hPa) Velocidad viento (km/h) Precipitación (mm) Radiación solar (W/m²)
Hora UTC Aire Suelo 15 cm Humedad Presión Vel. Dir. Vel. Max Dir. Intent. máx 5 min. Rad. Sol.
00:05 19.8 17.7 87.5 1022.6 0.0 NNE 0.0 NE 0.0 10.6
00:10 19.7 17.5 90.5 1022.4 2.0 ENE 3.5 E 0.0 13.0
00:15 19.8 17.5 90.5 1022.5 0.3 NE 1.8 NE 0.0 13.1
00:20 19.7 17.5 89.6 1022.4 0.3 NW 2.8 NW 0.0 12.1
00:25 19.6 17.4 91.1 1022.5 0.0 NNE 0.0 NW 0.0 12.8
00:30 19.6 17.4 91.3 1022.4 0.0 NNE 0.0 NW 0.0 12.1
00:35 19.6 17.3 92.0 1022.4 0.0 NNE 0.0 NW 0.0 10.9
00:40 19.5 17.3 92.1 1022.3 0.0 NNE 0.0 N 0.0 12.6
00:45 19.5 17.3 91.6 1022.3 0.0 NNE 0.0 N 0.0 12.3
00:50 19.4 17.2 91.7 1022.3 0.0 NNE 0.0 N 0.0 13.1
00:55 19.4 17.2 92.4 1022.2 0.0 NNE 0.0 N 0.0 12.4
01:00 19.4 17.2 92.8 1022.3 0.1 N 2.1 N 0.0 12.9
01:05 19.4 17.3 91.8 1022.0 1.0 N 2.5 N 0.0 11.9
01:10 19.3 17.2 91.8 1022.1 0.0 NNE 0.0 NNW 0.0 12.2
01:15 19.1 17.0 92.1 1022.0 1.4 NNE 2.5 NNE 0.0 11.9
01:20 19.2 16.9 92.4 1022.1 0.1 NNE 1.8 NNE 0.0 11.7
01:25 18.9 16.8 91.9 1022.0 1.3 NNW 3.2 NW 0.0 9.9
01:30 18.7 16.7 92.5 1022.1 0.7 NW 3.2 NW 0.0 9.4
01:35 18.7 16.6 93.4 1022.0 0.0 NNE 0.0 NW 0.0 12.2
01:40 18.7 16.6 93.7 1022.0 1.0 S 2.8 S 0.0 11.5
01:45 18.7 16.6 94.3 1022.0 0.7 WSW 2.5 WSW 0.0 10.4
01:50 18.6 16.6 94.4 1021.9 0.0 NNE 0.0 WSW 0.0 10.6
01:55 18.6 16.6 94.0 1022.0 0.0 NNE 0.0 WSW 0.0 11.4
02:00 18.4 16.5 94.0 1021.8 0.0 NNE 0.0 WSW 0.0 9.2
02:05 18.5 16.4 94.3 1022.0 0.0 NNE 0.0 WSW 0.0 8.6
02:10 18.4 16.3 93.8 1021.7 0.0 NNE 0.0 WSW 0.0 9.4
02:15 18.4 16.3 94.2 1021.9 0.0 NNE 0.0 WSW 0.0 8.7
02:20 18.6 16.4 93.7 1021.7 0.0 NNE 0.0 WSW 0.0 8.2
02:25 18.3 16.4 93.3 1021.9 1.7 NW 3.2 NW 0.0 8.4
02:30 18.2 16.3 93.5 1021.8 0.1 NW 1.4 NW 0.0 7.0
02:35 18.3 16.1 94.5 1021.8 0.0 NNE 0.0 NW 0.0 8.2
02:40 18.2 16.1 93.6 1021.8 0.0 NNE 0.0 NW 0.0 9.1
02:45 18.1 16.0 93.7 1021.7 0.0 NNE 0.0 NW 0.0 7.2
02:50 18.0 15.9 93.8 1021.8 0.0 NNE 0.0 NW 0.0 7.9
02:55 18.0 15.8 93.8 1021.7 0.0 NNE 0.0 NW 0.0 6.4
03:00 17.8 15.7 93.2 1021.8 0.0 NNE 0.0 NW 0.0 5.6
03:05 17.7 15.7 94.0 1021.7 0.2 NW 2.1 NW 0.0 7.4
03:10 17.7 15.6 94.6 1021.8 0.0 NNE 0.0 NW 0.0 208.9
03:15 17.7 15.5 94.7 1021.6 0.0 NNE 0.0 NW 0.0 180.1
03:20 17.7 15.5 94.7 1021.7 0.0 NNE 0.0 NW 0.0 202.4
03:25 17.7 15.5 94.8 1021.6 0.0 NNE 0.0 NW 0.0 209.2
03:30 17.6 15.5 94.8 1021.7 0.0 NNE 0.0 NW 0.0 185.5
03:35 17.5 15.4 95.3 1021.5 0.0 NNE 0.0 NW 0.0 286.5
03:40 17.6 15.4 95.5 1021.6 0.0 NNE 0.0 NW 0.0 246.5
03:45 17.6 15.5 95.1 1021.5 0.0 NNE 0.0 NW 0.0 174.0
03:50 17.4 15.5 95.0 1021.5 0.5 NE 2.5 NE 0.0 159.5
03:55 17.3 15.4 94.8 1021.4 0.0 NNE 0.0 NE 0.0 275.6
04:00 17.2 15.2 95.1 1021.4 0.0 NNE 0.0 NE 0.0 330.3
04:05 17.2 15.2 95.0 1021.3 0.5 WNW 3.2 WNW 0.0 221.2
04:10 17.0 15.1 95.1 1021.4 2.1 WNW 3.5 NW 0.0 191.3
04:15 17.0 15.0 95.6 1021.3 0.5 WSW 2.5 WSW 0.0 319.3
04:20 17.1 15.0 96.2 1021.3 0.0 NNE 0.0 NW 0.0 313.7
04:25 17.3 15.1 96.2 1021.4 0.3 NNE 2.5 NNE 0.0 333.3
04:30 17.2 15.2 95.8 1021.3 0.0 NNE 0.0 NNE 0.0 317.6
04:35 17.0 15.1 95.7 1021.4 0.0 NNE 0.0 NNE 0.0 335.7
04:40 17.1 15.0 96.1 1021.3 0.0 NNE 0.0 NNE 0.0 336.8
04:45 17.1 15.0 96.1 1021.4 0.0 NNE 0.0 NNE 0.0 323.3
Máxima 19.8 17.7 96.2 1022.6 2.1 WNW 3.5 NW 0.0 336.8
Mínima 17.0 15.0 87.5 1021.3
Total 0.0